| time (UTC) | temp C | wind direction | speed KPH | gust KPH | rain 1hr cm | rain 24hr cm | rain mn cm | humidity % | barometer mb |
| 20260506155116 | 8 | 87 | 0.0 | 0.0 | 0.00 | 0.03 | 0.03 | 99 | 1062.7 |
| 20260506152732 | 8 | 92 | 0.0 | 0.0 | 0.00 | 0.03 | 0.03 | 99 | 1062.6 |
| 20260506151231 | 8 | 92 | 0.0 | 0.0 | 0.00 | 0.03 | 0.03 | 99 | 1062.7 |
| 20260506145728 | 7 | 92 | 0.0 | 0.0 | 0.00 | 0.03 | 0.03 | 99 | 1062.5 |
| 20260506144224 | 7 | 92 | 0.0 | 0.0 | 0.00 | 0.03 | 0.03 | 99 | 1062.7 |
| 20260506142723 | 7 | 92 | 0.0 | 0.0 | 0.00 | 0.03 | 0.03 | 99 | 1062.7 |
| 20260506141223 | 7 | 92 | 0.0 | 0.0 | 0.00 | 0.03 | 0.03 | 99 | 1062.5 |
| 20260506135719 | 7 | 92 | 0.0 | 0.0 | 0.00 | 0.03 | 0.03 | 99 | 1062.3 |
| 20260506134215 | 7 | 92 | 0.0 | 0.0 | 0.00 | 0.03 | 0.03 | 99 | 1062.2 |
| 20260506132712 | 7 | 92 | 0.0 | 0.0 | 0.00 | 0.03 | 0.03 | 99 | 1062.2 |
| 20260506131208 | 7 | 92 | 0.0 | 0.0 | 0.00 | 0.03 | 0.03 | 99 | 1061.8 |
| 20260506125706 | 7 | 92 | 0.0 | 0.0 | 0.00 | 0.03 | 0.03 | 99 | 1062.1 |
| 20260506124205 | 7 | 92 | 0.0 | 0.0 | 0.00 | 0.03 | 0.03 | 99 | 1061.6 |
| 20260506122703 | 7 | 92 | 0.0 | 0.0 | 0.00 | 0.03 | 0.03 | 99 | 1061.8 |
| 20260506121200 | 7 | 92 | 0.0 | 0.0 | 0.00 | 0.03 | 0.03 | 99 | 1061.7 |
| 20260506115659 | 7 | 92 | 0.0 | 0.0 | 0.00 | 0.03 | 0.03 | 99 | 1061.5 |
| 20260506114158 | 7 | 92 | 0.0 | 0.0 | 0.00 | 0.03 | 0.03 | 99 | 1061.5 |
| 20260506112655 | 7 | 92 | 0.0 | 0.0 | 0.00 | 0.03 | 0.03 | 99 | 1061.4 |
| 20260506111153 | 7 | 92 | 0.0 | 0.0 | 0.00 | 0.03 | 0.03 | 99 | 1061.4 |
| 20260506105650 | 7 | 92 | 0.0 | 0.0 | 0.00 | 0.03 | 0.03 | 99 | 1061.3 |
| 20260506104149 | 7 | 92 | 0.0 | 0.0 | 0.00 | 0.03 | 0.03 | 99 | 1061.4 |
| 20260506102646 | 7 | 92 | 0.0 | 0.0 | 0.00 | 0.03 | 0.03 | 99 | 1060.8 |
| 20260506101143 | 7 | 92 | 0.0 | 0.0 | 0.00 | 0.03 | 0.03 | 99 | 1060.7 |
| 20260506095638 | 7 | 92 | 0.0 | 0.0 | 0.00 | 0.03 | 0.03 | 98 | 1060.9 |
| 20260506094135 | 7 | 92 | 0.0 | 0.0 | 0.00 | 0.03 | 0.03 | 99 | 1060.7 |
| 20260506092634 | 7 | 92 | 0.0 | 0.0 | 0.00 | 0.00 | 0.00 | 98 | 1060.6 |
| 20260506091131 | 7 | 92 | 0.0 | 0.0 | 0.00 | 0.00 | 0.00 | 98 | 1060.8 |
| 20260506085628 | 7 | 92 | 0.0 | 0.0 | 0.00 | 0.00 | 0.00 | 98 | 1061.1 |
| 20260506084124 | 7 | 92 | 0.0 | 0.0 | 0.00 | 0.00 | 0.00 | 98 | 1060.7 |
| 20260506082620 | 7 | 92 | 0.0 | 0.0 | 0.00 | 0.00 | 0.00 | 98 | 1060.7 |
| 20260506081118 | 7 | 92 | 0.0 | 0.0 | 0.00 | 0.00 | 0.00 | 98 | 1061.1 |
| 20260506072609 | 7 | 92 | 0.0 | 0.0 | 0.00 | 0.00 | 0.00 | 98 | 1060.6 |
| 20260506071108 | 7 | 92 | 0.0 | 0.0 | 0.00 | 0.00 | 0.00 | 98 | 1060.7 |
| 20260506061101 | 7 | 91 | 0.0 | 0.0 | 0.00 | 0.28 | 0.28 | 98 | 1060.0 |
| 20260506051051 | 8 | 90 | 0.0 | 0.0 | 0.00 | 0.28 | 0.28 | 98 | 1059.7 |
| 20260506044046 | 7 | 84 | 0.0 | 0.0 | 0.00 | 0.28 | 0.28 | 98 | 1059.4 |
| 20260506042546 | 8 | 94 | 0.0 | 0.0 | 0.00 | 0.28 | 0.28 | 98 | 1059.5 |
| 20260506041044 | 8 | 94 | 0.0 | 0.0 | 0.00 | 0.28 | 0.28 | 98 | 1059.4 |
| 20260506035541 | 8 | 77 | 0.0 | 0.0 | 0.00 | 0.28 | 0.28 | 98 | 1059.0 |
| 20260506034037 | 8 | 77 | 0.0 | 0.0 | 0.00 | 0.28 | 0.28 | 98 | 1058.9 |
| 20260506032535 | 8 | 77 | 0.0 | 0.0 | 0.00 | 0.28 | 0.28 | 98 | 1058.7 |
| 20260506031032 | 8 | 77 | 0.0 | 0.0 | 0.00 | 0.25 | 0.25 | 98 | 1058.5 |
| 20260506025530 | 8 | 77 | 0.0 | 0.0 | 0.00 | 0.25 | 0.25 | 98 | 1058.4 |
| 20260506024025 | 8 | 77 | 0.0 | 0.0 | 0.00 | 0.25 | 0.25 | 98 | 1058.4 |
| 20260506022523 | 8 | 77 | 0.0 | 0.0 | 0.00 | 0.25 | 0.25 | 98 | 1058.1 |
| 20260506021020 | 8 | 77 | 0.0 | 0.0 | 0.00 | 0.25 | 0.25 | 98 | 1058.1 |
| 20260506015518 | 8 | 77 | 0.0 | 0.0 | 0.00 | 0.25 | 0.25 | 98 | 1058.1 |
| 20260506014014 | 8 | 77 | 0.0 | 0.0 | 0.00 | 0.25 | 0.25 | 98 | 1058.1 |
| 20260506012511 | 8 | 77 | 0.0 | 0.0 | 0.00 | 0.25 | 0.25 | 98 | 1058.2 |
| 20260506011007 | 8 | 77 | 0.0 | 0.0 | 0.00 | 0.25 | 0.25 | 98 | 1058.0 |
| 20260506005506 | 8 | 77 | 0.0 | 0.0 | 0.00 | 0.25 | 0.25 | 98 | 1057.9 |
| 20260506004001 | 8 | 77 | 0.0 | 0.0 | 0.00 | 0.25 | 0.25 | 98 | 1057.6 |
| 20260506002456 | 8 | 77 | 0.0 | 0.0 | 0.00 | 0.25 | 0.25 | 98 | 1057.8 |
| 20260506000952 | 7 | 77 | 0.0 | 0.0 | 0.00 | 0.25 | 0.25 | 98 | 1057.6 |
| 20260505235450 | 7 | 78 | 0.0 | 0.0 | 0.00 | 0.25 | 0.25 | 98 | 1057.5 |
| 20260505233946 | 7 | 81 | 0.0 | 0.0 | 0.00 | 0.25 | 0.25 | 98 | 1057.5 |
| 20260505232445 | 7 | 90 | 0.0 | 0.0 | 0.00 | 0.25 | 0.25 | 98 | 1057.5 |
| 20260505230943 | 7 | 87 | 0.0 | 0.0 | 0.00 | 0.25 | 0.25 | 98 | 1057.5 |
| 20260505225440 | 7 | 83 | 0.0 | 0.0 | 0.00 | 0.25 | 0.25 | 98 | 1057.6 |
| 20260505223936 | 7 | 96 | 0.0 | 0.0 | 0.00 | 0.25 | 0.25 | 98 | 1057.6 |
| 20260505222431 | 7 | 82 | 0.0 | 0.0 | 0.00 | 0.25 | 0.25 | 98 | 1057.7 |
| 20260505220927 | 7 | 74 | 0.0 | 1.6 | 0.00 | 0.25 | 0.25 | 98 | 1057.5 |
| 20260505215425 | 7 | 81 | 0.0 | 0.0 | 0.00 | 0.25 | 0.25 | 98 | 1057.6 |
| 20260505213923 | 7 | 79 | 0.0 | 0.0 | 0.00 | 0.25 | 0.25 | 98 | 1057.7 |
| 20260505212420 | 7 | 82 | 0.0 | 0.0 | 0.00 | 0.25 | 0.25 | 98 | 1057.9 |
| 20260505210916 | 7 | 78 | 0.0 | 0.0 | 0.00 | 0.25 | 0.25 | 98 | 1057.7 |
| 20260505205414 | 7 | 84 | 0.0 | 0.0 | 0.00 | 0.25 | 0.25 | 98 | 1057.5 |
| 20260505203911 | 7 | 83 | 0.0 | 0.0 | 0.00 | 0.25 | 0.25 | 98 | 1057.5 |
| 20260505202411 | 7 | 45 | 0.0 | 1.6 | 0.00 | 0.25 | 0.25 | 98 | 1057.5 |
| 20260505200909 | 7 | 75 | 0.0 | 0.0 | 0.00 | 0.25 | 0.25 | 98 | 1057.2 |
| 20260505195405 | 7 | 67 | 0.0 | 1.6 | 0.00 | 0.25 | 0.25 | 98 | 1057.3 |
| 20260505193905 | 7 | 74 | 0.0 | 0.0 | 0.00 | 0.25 | 0.25 | 98 | 1057.8 |
| 20260505192404 | 7 | 82 | 0.0 | 0.0 | 0.00 | 0.25 | 0.25 | 98 | 1057.3 |
| 20260505190902 | 7 | 73 | 0.0 | 0.0 | 0.00 | 0.25 | 0.25 | 98 | 1057.5 |
| 20260505185402 | 7 | 74 | 0.0 | 0.0 | 0.00 | 0.25 | 0.25 | 98 | 1057.2 |
| 20260505183858 | 7 | 92 | 0.0 | 0.0 | 0.00 | 0.25 | 0.25 | 98 | 1057.3 |
| 20260505182354 | 7 | 89 | 0.0 | 0.0 | 0.00 | 0.25 | 0.25 | 98 | 1057.1 |
| 20260505180850 | 7 | 74 | 0.0 | 0.0 | 0.00 | 0.25 | 0.25 | 98 | 1057.0 |
| 20260505175346 | 6 | 73 | 0.0 | 0.0 | 0.00 | 0.25 | 0.25 | 98 | 1056.8 |
| 20260505173842 | 6 | 74 | 0.0 | 0.0 | 0.00 | 0.25 | 0.25 | 98 | 1056.8 |
| 20260505172339 | 7 | 76 | 0.0 | 0.0 | 0.00 | 0.25 | 0.25 | 98 | 1056.6 |
| 20260505170838 | 6 | 73 | 0.0 | 0.0 | 0.00 | 0.25 | 0.25 | 98 | 1056.4 |
| 20260505165338 | 6 | 74 | 0.0 | 0.0 | 0.00 | 0.25 | 0.25 | 98 | 1056.4 |
| 20260505163835 | 6 | 78 | 0.0 | 0.0 | 0.00 | 0.25 | 0.25 | 98 | 1056.3 |
| 20260505162333 | 6 | 78 | 0.0 | 0.0 | 0.00 | 0.25 | 0.25 | 98 | 1056.2 |
| 20260505160830 | 6 | 78 | 0.0 | 0.0 | 0.00 | 0.25 | 0.25 | 98 | 1056.6 |